Retour au catalogue

STARLINK-30428

ActifCommunicationsVLEO
NORAD 57906·PAYLOAD·🇺🇸 United States

Lancé Sep 20, 2023 depuis Cape Canaveral Space Force Station

Loading…

Prochains Passages (prochaines 24 heures)

TLE

FraisSource: CelesTrak SupGP

Époque: Sep 15, 2026, 03:22 UTC

1 57906C 23146R   26258.14076389  .00038763  00000+0  14038-2 0  2586
2 57906  43.0028 324.5759 0001747 265.9671 212.2160 15.27564161    19

Suivez STARLINK-30428 en temps réel avec AllMySat

Download on the App Store